Time,TemperatureF,DewpointF,PressureIn,WindDirection,WindDirectionDegrees,WindSpeedMPH,WindSpeedGustMPH,Humidity,HourlyPrecipIn,Conditions,Clouds,dailyrainin,SoftwareType,DateUTC
2013-04-15 00:01:00,49.0,29.0,29.36,WNW,301,0.0,-999.0,45,-99.99,,,-99.99,,2013-04-15 06:01:00,
2013-04-15 00:12:00,49.0,29.0,29.36,WNW,301,0.0,-999.0,45,-99.99,,,-99.99,,2013-04-15 06:12:00,
2013-04-15 00:22:00,49.0,29.0,29.36,WNW,301,0.0,-999.0,46,-99.99,,,-99.99,,2013-04-15 06:22:00,
2013-04-15 00:32:00,48.0,29.0,29.36,WNW,301,0.0,-999.0,47,-99.99,,,-99.99,,2013-04-15 06:32:00,
2013-04-15 00:42:00,48.0,29.0,29.36,WNW,301,0.0,-999.0,47,-99.99,,,-99.99,,2013-04-15 06:42:00,
2013-04-15 00:52:00,47.0,28.0,29.37,WNW,301,1.0,-999.0,47,-99.99,,,-99.99,,2013-04-15 06:52:00,
2013-04-15 01:02:00,46.0,27.0,29.36,WNW,301,0.0,-999.0,48,-99.99,,,-99.99,,2013-04-15 07:02:00,
2013-04-15 01:52:00,46.0,27.0,29.36,WNW,301,2.0,-999.0,48,-99.99,,,-99.99,,2013-04-15 07:52:00,
2013-04-15 02:02:00,47.0,28.0,29.34,WNW,301,2.0,-999.0,47,-99.99,,,-99.99,,2013-04-15 08:02:00,
2013-04-15 02:21:00,46.0,27.0,29.34,WNW,301,2.0,-999.0,47,-99.99,,,-99.99,,2013-04-15 08:21:00,
2013-04-15 02:33:00,47.0,26.0,29.34,WNW,301,0.0,-999.0,44,-99.99,,,-99.99,,2013-04-15 08:33:00,
2013-04-15 02:42:00,47.0,26.0,29.34,WNW,301,0.0,-999.0,44,-99.99,,,-99.99,,2013-04-15 08:42:00,
2013-04-15 02:51:00,47.0,26.0,29.34,WNW,301,0.0,-999.0,43,-99.99,,,-99.99,,2013-04-15 08:51:00,
2013-04-15 03:02:00,47.0,26.0,29.33,WNW,301,0.0,-999.0,43,-99.99,,,-99.99,,2013-04-15 09:02:00,
2013-04-15 03:22:00,48.0,27.0,29.33,WNW,301,0.0,-999.0,44,-99.99,,,-99.99,,2013-04-15 09:22:00,
2013-04-15 03:32:00,48.0,27.0,29.33,WNW,301,1.0,-999.0,43,-99.99,,,-99.99,,2013-04-15 09:32:00,
2013-04-15 03:42:00,48.0,27.0,29.33,WNW,301,1.0,-999.0,43,-99.99,,,-99.99,,2013-04-15 09:42:00,
2013-04-15 03:52:00,47.0,26.0,29.33,WNW,301,0.0,-999.0,44,-99.99,,,-99.99,,2013-04-15 09:52:00,
2013-04-15 04:02:00,46.0,27.0,29.33,WNW,301,0.0,-999.0,47,-99.99,,,-99.99,,2013-04-15 10:02:00,
2013-04-15 04:22:00,45.0,27.0,29.34,WNW,301,2.0,-999.0,48,-99.99,,,-99.99,,2013-04-15 10:22:00,
2013-04-15 04:33:00,44.0,26.0,29.34,WNW,301,0.0,-999.0,48,-99.99,,,-99.99,,2013-04-15 10:33:00,
2013-04-15 04:52:00,44.0,27.0,29.34,WNW,301,1.0,-999.0,51,-99.99,,,-99.99,,2013-04-15 10:52:00,
2013-04-15 05:22:00,44.0,27.0,29.35,WNW,301,2.0,-999.0,50,-99.99,,,-99.99,,2013-04-15 11:22:00,
2013-04-15 05:32:00,43.0,26.0,29.34,WNW,301,1.0,-999.0,51,-99.99,,,-99.99,,2013-04-15 11:32:00,
2013-04-15 05:52:00,45.0,25.0,29.36,WNW,301,0.0,-999.0,46,-99.99,,,-99.99,,2013-04-15 11:52:00,
2013-04-15 06:03:00,47.0,26.0,29.35,WNW,301,0.0,-999.0,44,-99.99,,,-99.99,,2013-04-15 12:03:00,
2013-04-15 06:13:00,47.0,26.0,29.35,WNW,301,0.0,-999.0,44,-99.99,,,-99.99,,2013-04-15 12:13:00,
2013-04-15 06:22:00,47.0,26.0,29.35,WNW,301,0.0,-999.0,44,-99.99,,,-99.99,,2013-04-15 12:22:00,
2013-04-15 06:33:00,46.0,27.0,29.35,WNW,301,0.0,-999.0,47,-99.99,,,-99.99,,2013-04-15 12:33:00,
2013-04-15 06:43:00,46.0,27.0,29.35,WNW,301,0.0,-999.0,47,-99.99,,,-99.99,,2013-04-15 12:43:00,
2013-04-15 06:52:00,44.0,27.0,29.36,WNW,301,1.0,-999.0,51,-99.99,,,-99.99,,2013-04-15 12:52:00,
2013-04-15 07:03:00,44.0,27.0,29.38,WNW,301,0.0,-999.0,51,-99.99,,,-99.99,,2013-04-15 13:03:00,
2013-04-15 07:22:00,44.0,27.0,29.38,WNW,301,0.0,-999.0,51,-99.99,,,-99.99,,2013-04-15 13:22:00,
2013-04-15 07:32:00,43.0,27.0,29.38,WNW,301,0.0,-999.0,52,-99.99,,,-99.99,,2013-04-15 13:32:00,
2013-04-15 07:42:00,43.0,27.0,29.38,WNW,301,0.0,-999.0,52,-99.99,,,-99.99,,2013-04-15 13:42:00,
2013-04-15 07:52:00,43.0,28.0,29.39,WNW,301,1.0,-999.0,55,-99.99,,,-99.99,,2013-04-15 13:52:00,
2013-04-15 08:03:00,43.0,30.0,29.43,WNW,301,1.0,-999.0,60,-99.99,,,-99.99,,2013-04-15 14:03:00,
2013-04-15 08:12:00,43.0,30.0,29.43,WNW,301,1.0,-999.0,60,-99.99,,,-99.99,,2013-04-15 14:12:00,
2013-04-15 08:22:00,45.0,30.0,29.42,WNW,301,0.0,-999.0,56,-99.99,,,-99.99,,2013-04-15 14:22:00,
2013-04-15 08:32:00,49.0,30.0,29.41,WNW,301,0.0,-999.0,48,-99.99,,,-99.99,,2013-04-15 14:32:00,
2013-04-15 08:43:00,49.0,30.0,29.41,WNW,301,0.0,-999.0,48,-99.99,,,-99.99,,2013-04-15 14:43:00,
2013-04-15 08:52:00,53.0,30.0,29.39,WNW,301,0.0,-999.0,41,-99.99,,,-99.99,,2013-04-15 14:52:00,
2013-04-15 09:03:00,55.0,26.0,29.39,SE,132,2.0,-999.0,33,-99.99,,,-99.99,,2013-04-15 15:03:00,
2013-04-15 09:12:00,55.0,26.0,29.39,SE,132,2.0,-999.0,33,-99.99,,,-99.99,,2013-04-15 15:12:00,
2013-04-15 09:22:00,56.0,27.0,29.39,SSE,153,4.0,-999.0,32,-99.99,,,-99.99,,2013-04-15 15:22:00,
2013-04-15 09:34:00,57.0,27.0,29.38,SSE,154,3.0,-999.0,31,-99.99,,,-99.99,,2013-04-15 15:34:00,
2013-04-15 09:43:00,57.0,27.0,29.38,SSE,154,3.0,-999.0,31,-99.99,,,-99.99,,2013-04-15 15:43:00,
2013-04-15 09:53:00,58.0,26.0,29.38,South,185,4.0,-999.0,29,-99.99,,,-99.99,,2013-04-15 15:53:00,
2013-04-15 10:03:00,58.0,25.0,29.38,South,188,8.0,-999.0,28,-99.99,,,-99.99,,2013-04-15 16:03:00,
2013-04-15 10:13:00,58.0,25.0,29.38,South,188,8.0,-999.0,28,-99.99,,,-99.99,,2013-04-15 16:13:00,
2013-04-15 10:23:00,59.0,25.0,29.38,South,186,7.0,-999.0,27,-99.99,,,-99.99,,2013-04-15 16:23:00,
2013-04-15 10:33:00,60.0,25.0,29.36,SSW,211,6.0,-999.0,26,-99.99,,,-99.99,,2013-04-15 16:33:00,
2013-04-15 10:43:00,60.0,25.0,29.36,SSW,211,6.0,-999.0,26,-99.99,,,-99.99,,2013-04-15 16:43:00,
2013-04-15 10:52:00,60.0,25.0,29.36,SSW,200,10.0,-999.0,26,-99.99,,,-99.99,,2013-04-15 16:52:00,
2013-04-15 11:03:00,60.0,25.0,29.38,South,187,7.0,-999.0,26,-99.99,,,-99.99,,2013-04-15 17:03:00,
2013-04-15 11:14:00,60.0,25.0,29.38,South,187,7.0,-999.0,26,-99.99,,,-99.99,,2013-04-15 17:14:00,
2013-04-15 11:21:00,61.0,25.0,29.36,SW,221,8.0,-999.0,25,-99.99,,,-99.99,,2013-04-15 17:21:00,
2013-04-15 11:32:00,62.0,25.0,29.36,SW,224,9.0,-999.0,24,-99.99,,,-99.99,,2013-04-15 17:32:00,
2013-04-15 11:43:00,62.0,25.0,29.36,SW,224,9.0,-999.0,24,-99.99,,,-99.99,,2013-04-15 17:43:00,
2013-04-15 11:52:00,62.0,25.0,29.35,SSW,200,6.0,-999.0,24,-99.99,,,-99.99,,2013-04-15 17:52:00,
2013-04-15 12:02:00,63.0,25.0,29.36,SW,219,10.0,-999.0,23,-99.99,,,-99.99,,2013-04-15 18:02:00,
2013-04-15 12:12:00,63.0,25.0,29.36,SW,219,10.0,-999.0,23,-99.99,,,-99.99,,2013-04-15 18:12:00,
2013-04-15 12:22:00,64.0,25.0,29.34,SW,233,9.0,-999.0,23,-99.99,,,-99.99,,2013-04-15 18:22:00,
2013-04-15 12:32:00,64.0,24.0,29.33,SSW,203,10.0,-999.0,22,-99.99,,,-99.99,,2013-04-15 18:32:00,
2013-04-15 12:42:00,64.0,24.0,29.33,SSW,203,10.0,-999.0,22,-99.99,,,-99.99,,2013-04-15 18:42:00,
2013-04-15 12:52:00,65.0,25.0,29.34,SSW,192,6.0,-999.0,22,-99.99,,,-99.99,,2013-04-15 18:52:00,
2013-04-15 13:02:00,64.0,23.0,29.34,SW,233,10.0,-999.0,21,-99.99,,,-99.99,,2013-04-15 19:02:00,
2013-04-15 13:11:00,64.0,23.0,29.34,SW,233,10.0,-999.0,21,-99.99,,,-99.99,,2013-04-15 19:11:00,
2013-04-15 13:21:00,64.0,24.0,29.34,SW,223,7.0,-999.0,22,-99.99,,,-99.99,,2013-04-15 19:21:00,
2013-04-15 13:33:00,64.0,24.0,29.32,SW,221,9.0,-999.0,22,-99.99,,,-99.99,,2013-04-15 19:33:00,
2013-04-15 13:43:00,64.0,24.0,29.32,SW,221,9.0,-999.0,22,-99.99,,,-99.99,,2013-04-15 19:43:00,
2013-04-15 14:02:00,66.0,24.0,29.29,SW,231,12.0,-999.0,20,-99.99,,,-99.99,,2013-04-15 20:02:00,
2013-04-15 14:11:00,66.0,24.0,29.29,SW,231,12.0,-999.0,20,-99.99,,,-99.99,,2013-04-15 20:11:00,
2013-04-15 14:22:00,66.0,24.0,29.29,WSW,251,14.0,-999.0,20,-99.99,,,-99.99,,2013-04-15 20:22:00,
2013-04-15 14:32:00,66.0,24.0,29.28,SW,228,12.0,-999.0,20,-99.99,,,-99.99,,2013-04-15 20:32:00,
2013-04-15 14:42:00,66.0,24.0,29.28,SW,228,12.0,-999.0,20,-99.99,,,-99.99,,2013-04-15 20:42:00,
2013-04-15 14:52:00,67.0,23.0,29.28,WSW,250,14.0,-999.0,19,-99.99,,,-99.99,,2013-04-15 20:52:00,
2013-04-15 15:02:00,67.0,25.0,29.28,WSW,240,12.0,-999.0,20,-99.99,,,-99.99,,2013-04-15 21:02:00,
2013-04-15 15:11:00,67.0,25.0,29.28,WSW,240,12.0,-999.0,20,-99.99,,,-99.99,,2013-04-15 21:11:00,
2013-04-15 15:22:00,67.0,25.0,29.27,SSW,213,12.0,-999.0,20,-99.99,,,-99.99,,2013-04-15 21:22:00,
2013-04-15 15:32:00,68.0,22.0,29.28,SSW,212,11.0,-999.0,17,-99.99,,,-99.99,,2013-04-15 21:32:00,
2013-04-15 15:42:00,68.0,22.0,29.28,SSW,212,11.0,-999.0,17,-99.99,,,-99.99,,2013-04-15 21:42:00,
2013-04-15 15:53:00,69.0,21.0,29.26,SW,219,15.0,-999.0,16,-99.99,,,-99.99,,2013-04-15 21:53:00,
2013-04-15 16:02:00,69.0,19.0,29.26,SSW,197,15.0,-999.0,15,-99.99,,,-99.99,,2013-04-15 22:02:00,
2013-04-15 16:12:00,69.0,19.0,29.26,SSW,197,15.0,-999.0,15,-99.99,,,-99.99,,2013-04-15 22:12:00,
2013-04-15 16:22:00,69.0,19.0,29.26,West,266,16.0,-999.0,15,-99.99,,,-99.99,,2013-04-15 22:22:00,
2013-04-15 16:32:00,69.0,18.0,29.26,SW,219,20.0,-999.0,14,-99.99,,,-99.99,,2013-04-15 22:32:00,
2013-04-15 16:42:00,69.0,18.0,29.26,SW,219,20.0,-999.0,14,-99.99,,,-99.99,,2013-04-15 22:42:00,
2013-04-15 16:52:00,69.0,18.0,29.26,SW,230,17.0,-999.0,14,-99.99,,,-99.99,,2013-04-15 22:52:00,
2013-04-15 17:02:00,69.0,18.0,29.25,SW,217,19.0,-999.0,14,-99.99,,,-99.99,,2013-04-15 23:02:00,
2013-04-15 17:12:00,69.0,18.0,29.25,SW,217,19.0,-999.0,14,-99.99,,,-99.99,,2013-04-15 23:12:00,
2013-04-15 17:22:00,70.0,15.0,29.24,SW,233,17.0,-999.0,12,-99.99,,,-99.99,,2013-04-15 23:22:00,
2013-04-15 17:32:00,69.0,16.0,29.25,SW,224,17.0,-999.0,13,-99.99,,,-99.99,,2013-04-15 23:32:00,
2013-04-15 17:42:00,69.0,16.0,29.25,SW,224,17.0,-999.0,13,-99.99,,,-99.99,,2013-04-15 23:42:00,
2013-04-15 17:52:00,69.0,16.0,29.26,SW,236,16.0,-999.0,13,-99.99,,,-99.99,,2013-04-15 23:52:00,
2013-04-15 18:02:00,69.0,16.0,29.24,WSW,243,17.0,-999.0,13,-99.99,,,-99.99,,2013-04-16 00:02:00,
2013-04-15 18:11:00,69.0,16.0,29.24,WSW,243,17.0,-999.0,13,-99.99,,,-99.99,,2013-04-16 00:11:00,
2013-04-15 18:22:00,68.0,17.0,29.25,West,274,19.0,-999.0,14,-99.99,,,-99.99,,2013-04-16 00:22:00,
2013-04-15 18:31:00,68.0,15.0,29.25,WSW,240,17.0,-999.0,13,-99.99,,,-99.99,,2013-04-16 00:31:00,
2013-04-15 18:42:00,68.0,15.0,29.25,WSW,240,17.0,-999.0,13,-99.99,,,-99.99,,2013-04-16 00:42:00,
2013-04-15 18:52:00,68.0,17.0,29.25,SW,220,17.0,-999.0,14,-99.99,,,-99.99,,2013-04-16 00:52:00,
2013-04-15 19:02:00,67.0,16.0,29.26,SW,217,16.0,-999.0,14,-99.99,,,-99.99,,2013-04-16 01:02:00,
2013-04-15 19:11:00,67.0,16.0,29.26,SW,217,16.0,-999.0,14,-99.99,,,-99.99,,2013-04-16 01:11:00,
2013-04-15 19:22:00,67.0,18.0,29.26,SW,236,14.0,-999.0,15,-99.99,,,-99.99,,2013-04-16 01:22:00,
2013-04-15 19:32:00,67.0,16.0,29.28,South,191,15.0,-999.0,14,-99.99,,,-99.99,,2013-04-16 01:32:00,
2013-04-15 19:42:00,67.0,16.0,29.28,South,191,15.0,-999.0,14,-99.99,,,-99.99,,2013-04-16 01:42:00,
2013-04-15 19:52:00,66.0,17.0,29.28,SW,226,12.0,-999.0,15,-99.99,,,-99.99,,2013-04-16 01:52:00,
2013-04-15 20:02:00,65.0,16.0,29.25,SW,222,11.0,-999.0,15,-99.99,,,-99.99,,2013-04-16 02:02:00,
2013-04-15 20:11:00,65.0,16.0,29.25,SW,222,11.0,-999.0,15,-99.99,,,-99.99,,2013-04-16 02:11:00,
2013-04-15 20:22:00,64.0,17.0,29.26,SW,232,11.0,-999.0,16,-99.99,,,-99.99,,2013-04-16 02:22:00,
2013-04-15 20:32:00,64.0,17.0,29.25,SW,236,13.0,-999.0,16,-99.99,,,-99.99,,2013-04-16 02:32:00,
2013-04-15 20:42:00,64.0,17.0,29.25,SW,236,13.0,-999.0,16,-99.99,,,-99.99,,2013-04-16 02:42:00,
2013-04-15 20:51:00,63.0,19.0,29.27,SSW,206,9.0,-999.0,18,-99.99,,,-99.99,,2013-04-16 02:51:00,
2013-04-15 21:02:00,62.0,17.0,29.25,SW,214,11.0,-999.0,17,-99.99,,,-99.99,,2013-04-16 03:02:00,
2013-04-15 21:11:00,62.0,17.0,29.25,SW,214,11.0,-999.0,17,-99.99,,,-99.99,,2013-04-16 03:11:00,
2013-04-15 21:22:00,62.0,18.0,29.25,SSW,206,11.0,-999.0,18,-99.99,,,-99.99,,2013-04-16 03:22:00,
2013-04-15 21:33:00,61.0,18.0,29.26,South,175,8.0,-999.0,19,-99.99,,,-99.99,,2013-04-16 03:33:00,
2013-04-15 21:43:00,61.0,18.0,29.26,South,175,8.0,-999.0,19,-99.99,,,-99.99,,2013-04-16 03:43:00,
2013-04-15 21:52:00,59.0,17.0,29.28,SW,219,8.0,-999.0,19,-99.99,,,-99.99,,2013-04-16 03:52:00,
2013-04-15 22:02:00,59.0,17.0,29.28,SW,228,10.0,-999.0,19,-99.99,,,-99.99,,2013-04-16 04:02:00,
2013-04-15 22:12:00,59.0,17.0,29.28,SW,228,10.0,-999.0,19,-99.99,,,-99.99,,2013-04-16 04:12:00,
2013-04-15 22:23:00,59.0,17.0,29.29,SSW,198,12.0,-999.0,19,-99.99,,,-99.99,,2013-04-16 04:23:00,
2013-04-15 22:32:00,59.0,17.0,29.29,SSW,204,10.0,-999.0,19,-99.99,,,-99.99,,2013-04-16 04:32:00,
2013-04-15 22:42:00,59.0,17.0,29.29,SSW,204,10.0,-999.0,19,-99.99,,,-99.99,,2013-04-16 04:42:00,
2013-04-15 22:52:00,58.0,17.0,29.31,SSW,196,9.0,-999.0,20,-99.99,,,-99.99,,2013-04-16 04:52:00,
2013-04-15 23:02:00,57.0,17.0,29.31,SSW,205,7.0,-999.0,21,-99.99,,,-99.99,,2013-04-16 05:02:00,
2013-04-15 23:12:00,57.0,17.0,29.31,SSW,205,7.0,-999.0,21,-99.99,,,-99.99,,2013-04-16 05:12:00,
2013-04-15 23:22:00,57.0,20.0,29.32,SW,218,8.0,-999.0,23,-99.99,,,-99.99,,2013-04-16 05:22:00,
2013-04-15 23:32:00,56.0,20.0,29.34,SSW,212,5.0,-999.0,24,-99.99,,,-99.99,,2013-04-16 05:32:00,
2013-04-15 23:42:00,56.0,20.0,29.34,SSW,212,5.0,-999.0,24,-99.99,,,-99.99,,2013-04-16 05:42:00,
2013-04-15 23:51:00,55.0,21.0,29.34,SSW,211,4.0,-999.0,26,-99.99,,,-99.99,,2013-04-16 05:51:00,